SCP
0 0 0 0 0 0 0 0 0 0 0 0 0 0 0 0 0 0 0 0 0 0 0 0 0 0 0 0 0 0 0 0 0 0 0 0 0 0 0 0 0 0 0
0 0 0 0 0 0 0 0 0 0 0 0 0 0 0 0 0 0 0 0 0 0 0 0 0 0 0 0 0 0 0 0 0 0 0 0 0 0 0 0 0 0 0
0 0 0 0 0 0 0 0 0 0 0 0 0 0 0 0 0 0 0 0 0 0 0 0 0 0 0 0 0 0 0 0 0 0 0 0 0 0 0 0 0 0 0
0 0 0 0 0 0 0 0 0 0 0 0 0 0 0 0 0 0 0 0 0 0 0 0 0 0 0 0 0 0 0 0 0 0 0 0 0 0 0 0 0 0 0
0 0 0 0 0 0 0 0 0 0 0 0 0 0 0 0 0 0 0 0 0 0 0 0 0 0 0 0 0 0 0 0 0 0 0 0 0 0 0 0 0 0 0
0 0 0 0 0 0 0 0 0 0 0 0 0 0 0 0 0 0 0 0 0 0 0 0 0 0 0 0 0 0 0 0 0 0 0 0 0 0 0 0 0 0 0
0 0 0 0 0 0 0 0 0 0 0 0 0 0 0 0 0 0 0 0 0 0 0 0 0 0 0 0 0 0 0 0 0 0 0 0 0 0 0 0 0 0 0
-0 -0 0 0 0 0 0 0 0 0 0 0 0 0 0 0 0 0 0 0 0 0 0 0 0 0 0 0 0 0 0 0 0 0 0 0 0 0 0 0 0 0 0
-0 -0 -0 -0 0 0 0 0 0 0 0 0 0 0 0 0 0 0 0 0 0 0 0 0 0 0 0 0 0 0 0 0 0 0 0 0 0 0 0 0 0 0 0
-0 -0 -0 -0 -0 0 0 0 0 0 0 0 0 0 0 0 0 0 0 0 0 0 0 0 0 0 0 0 0 0 0 0 0 0 0 0 0 0 0 0 0 0 0
0 -0 -0 0 0 -0 0 0 0 0 0 0 0 0 0 0 0 0 0 0 0 0 0 0 0 0 0 0 0 0 0 0 0 0 0 0 0 0 0 0 0 0 0
0 0 0 0 0 0 0 0 0 0 0 0 0 0 0 0 0 0 0 0 0 0 0 0 0 0 0 0 0 0 0 0 0 0 0 0 0 0 0 0 0 0 0
0 0 0 0 0 0 0 0 0 0 0 0 0 0 0 0 0 0 0 0 0 0 0 0 0 0 0 0 0 0 0 0 0 0 0 0 0 0 0 0 0 0 0
0 0 0 0 0 0 0 0 0 0 0 0 0 0 0 0 0 0 0 0 0 0 0 0 0 0 0 0 0 0 0 0 0 0 0 0 0 0 0 0 0 0 0
0 0 0 0 0 0 0 0 0 0 0 0 0 0 0 0 0 0 0 0 0 0 0 0 0 0 0 0 0 0 0 0 0 0 0 0 0 0 0 0 0 0 0
0 0 0 0 0 0 0 0 0 0 0 0 0 0 0 0 0 0 0 0 0 0 0 0 0 0 0 0 0 0 0 0 0 0 0 0 0 0 0 0 0 0 0
0 0 0 -0 0 0 0 0 0 0 0 0 0 0 0 0 0 0 0 0 0 0 0 0 0 0 0 0 0 0 0 0 0 0 0 0 0 0 0 0 0 0 0
0 0 0 0 0 0 0 0 0 0 0 0 0 0 0 0 0 0 0 0 0 0 0 0 0 0 0 0 0 0 0 0 0 0 0 0 0 0 0 0 0 0 0
0 0 0 0 0 0 0 0 0 0 0 0 0 0 0 0 0 0 0 0 0 0 0 0 0 0 0 0 0 0 0 0 0 0 0 0 0 0 0 0 0 0 0
0 0 0 0 0 0 0 0 0 0 0 0 0 0 0 0 0 0 0 0 0 0 0 0 0 0 0 0 0 0 0 0 0 0 0 0 0 0 0 0 0 0 0
0 0 0 0 0 0 0 0 0 0 0 0 0 0 0 0 0 0 0 0 0 0 0 0 0 0 0 0 0 0 0 0 0 0 0 0 0 0 0 0 0 0 0
0 0 -0 0 0 0 0 0 0 0 0 0 0 0 0 0 0 0 0 0 0 0 0 0 0 0 0 0 0 0 0 0 0 0 0 0 0 0 0 0 0 0 0
0 0 -0 0 0 0 0 0 0 0 0 0 0 0 0 0 0 0 0 0 0 0 0 0 0 0 0 0 0 0 0 0 0 0 0 0 0 0 0 0 0 0 0
0 -0 0 0 0 0 0 0 0 0 0 0 0 0 0 0 0 0 0 0 0 0 0 0 0 0 0 0 0 0 0 0 0 0 0 0 0 0 0 0 0 0 0
0 0 0 0 0 0 0 0 0 0 0 0 0 0 0 0 0 0 0 0 0 0 0 0 0 0 0 0 0 0 0 0 0 0 0 0 0 0 0 0 0 0 0
0 0 0 0 0 0 0 0 0 0 0 0 0 0 0 0 0 0 0 0 0 0 0 0 0 0 0 0 0 0 0 0 0 0 0 0 0 0 0 0 0 0 0
Wind_Speed_500mb
48 47 49 49 51 62 85 91 94 96 97 99 103 112 116 109 103 106 113 110 107 107 107 106 100 93 89 86 85 79 75 72 70 67 62 55 50 48 45 48 50 48 46
65 57 52 50 51 53 66 83 89 93 95 100 99 100 100 109 104 102 109 110 107 107 108 107 104 96 91 88 85 79 76 72 72 71 62 57 54 52 51 46 44 42 42
64 65 58 54 55 59 61 66 80 90 91 94 100 101 100 100 108 105 104 109 107 105 106 107 102 96 92 92 88 80 75 70 67 65 63 59 54 54 53 50 47 43 41
62 66 69 65 59 58 63 65 70 82 91 91 99 100 100 100 103 105 103 107 106 103 104 103 100 96 93 89 86 79 74 71 69 64 59 61 53 53 58 54 50 45 43
71 70 72 72 70 68 64 67 69 74 85 90 96 101 100 100 100 102 106 106 106 102 102 99 98 91 85 81 82 81 77 73 66 62 70 60 56 53 51 44 43 40 42
74 76 80 74 69 75 69 65 68 73 80 84 93 99 102 102 99 100 104 105 103 102 102 100 96 87 81 81 83 79 73 68 68 64 61 63 57 55 50 42 38 40 41
79 76 78 75 70 71 78 69 71 76 76 88 92 94 101 102 98 96 97 100 102 104 102 98 93 87 85 83 81 63 60 59 61 63 60 55 54 53 52 42 40 39 39
86 82 78 82 80 71 70 77 72 76 80 87 92 94 94 100 93 93 91 94 101 100 100 94 91 88 87 85 66 69 63 65 63 59 52 50 48 42 40 37 33 35 35
92 91 88 87 89 85 74 77 79 73 79 83 91 89 89 91 87 73 82 93 103 96 95 92 95 87 93 66 61 63 64 67 60 54 48 44 41 40 36 37 37 35 33
100 100 94 92 93 92 84 79 80 74 76 73 83 90 86 85 74 61 67 87 98 91 95 95 91 90 77 64 60 61 58 58 57 51 45 42 39 38 37 37 33 32 31
100 104 100 95 96 95 86 84 75 75 71 65 76 84 88 85 85 71 75 88 91 90 91 95 68 81 56 52 45 48 50 53 48 44 41 40 40 37 38 35 33 33 33
96 105 104 102 99 97 91 83 79 69 71 67 72 79 86 89 90 82 80 85 82 87 90 79 80 64 53 46 48 49 50 48 45 43 42 41 37 36 37 36 33 34 35
96 99 109 109 105 101 95 87 79 67 69 69 73 79 84 89 87 82 87 96 91 91 80 84 69 52 50 48 52 54 50 49 46 43 41 37 37 37 36 35 32 33 34
112 112 110 112 109 109 98 88 78 71 70 69 77 81 82 83 81 82 84 67 69 56 63 55 53 51 51 55 56 53 50 45 42 41 38 35 35 35 33 33 32 32 33
116 120 123 115 110 109 105 90 80 76 71 65 76 81 84 87 86 83 77 74 60 69 60 69 64 59 62 59 55 51 47 44 43 40 37 35 34 32 31 29 29 29 30
118 120 123 118 107 109 103 93 80 77 72 62 70 78 81 87 89 80 71 64 66 63 67 68 63 67 62 59 55 48 45 45 40 38 37 34 32 27 24 22 26 30 33
110 114 118 114 106 102 98 90 86 83 74 64 68 82 83 87 83 72 68 68 69 67 65 68 69 66 63 58 49 48 47 40 36 35 32 28 25 19 19 26 33 34 34
108 109 109 112 109 97 89 90 84 90 87 66 70 66 81 82 77 80 83 78 76 69 66 66 68 62 56 50 47 44 38 35 34 30 25 22 19 24 28 31 32 32 32
107 109 109 108 105 90 84 87 85 90 92 81 73 65 62 67 74 79 78 78 77 76 70 65 60 55 51 47 45 39 35 33 29 25 20 20 25 27 27 28 29 29 30
110 107 107 100 90 76 85 87 86 89 90 91 86 81 74 72 75 82 83 80 78 76 69 64 60 56 51 46 44 39 34 31 24 21 25 27 25 25 25 27 28 28 30
102 100 92 78 71 79 83 83 84 85 85 83 84 81 86 88 85 75 73 72 73 75 73 67 61 52 47 47 40 37 28 24 26 27 26 25 23 23 24 26 27 28 28
88 84 74 69 70 80 81 79 80 82 84 84 81 82 85 89 89 86 81 78 73 64 60 58 55 52 48 42 31 25 26 29 30 27 23 22 22 22 23 24 24 24 26
73 66 65 69 72 72 75 79 83 88 85 88 96 99 96 91 83 73 67 66 64 62 57 54 54 46 35 29 24 29 32 28 24 22 21 21 20 19 20 22 23 23 24
56 55 64 70 68 68 73 78 82 88 94 97 98 93 83 75 76 73 69 66 60 59 55 43 36 32 26 27 32 30 24 21 20 19 18 18 18 19 20 20 21 21 21
45 55 63 64 65 68 74 79 81 86 88 86 82 77 76 77 76 72 64 62 52 42 38 33 28 27 31 29 25 22 21 20 19 18 18 19 18 18 18 18 19 19 20
41 48 53 56 59 64 71 75 75 75 80 80 80 80 78 72 68 65 55 47 42 37 31 31 33 30 26 24 22 20 19 18 17 17 18 17 15 14 15 15 16 17 18
Wind_Direction_500mb
305 308 305 306 288 267 255 253 254 249 245 243 244 251 256 254 248 242 242 241 238 241 242 242 242 242 242 240 240 242 245 249 249 253 260 265 266 266 270 269 261 264 263
308 305 301 296 297 285 270 257 252 252 248 245 243 245 245 253 253 244 240 240 238 239 240 240 240 239 239 239 239 240 245 250 250 255 258 260 263 266 270 263 255 256 261
314 312 305 298 296 297 287 277 258 251 250 246 244 242 241 243 251 249 241 240 240 240 241 240 239 237 237 236 239 240 246 247 246 252 260 256 258 257 268 262 255 249 256
325 309 308 306 300 298 297 280 270 257 252 246 242 243 241 241 242 248 244 239 239 239 240 239 239 238 238 237 240 241 243 243 247 252 257 242 253 259 269 259 250 254 249
332 328 313 307 306 295 295 290 273 263 257 250 246 243 241 242 240 242 248 241 239 239 238 237 238 238 237 239 241 243 238 246 247 243 252 249 254 263 254 245 244 242 244
328 331 328 311 306 300 290 288 278 265 257 252 248 246 242 240 238 240 249 247 241 239 237 236 236 235 234 238 241 238 244 246 245 251 245 256 257 254 241 245 234 240 251
329 328 331 320 305 307 298 290 280 271 260 251 249 248 247 243 241 238 246 250 244 241 239 236 233 230 234 236 231 238 245 235 241 243 248 250 250 246 237 232 238 247 246
332 327 327 328 315 305 306 298 286 275 264 258 253 251 250 248 245 241 244 248 245 242 240 237 231 232 234 224 233 246 241 242 240 247 239 240 242 233 234 242 242 236 240
329 330 325 322 322 313 302 303 297 283 269 259 258 255 252 250 245 243 255 247 242 239 238 234 232 232 231 229 237 243 237 244 234 226 228 224 227 234 231 230 230 235 245
323 325 324 320 317 318 306 298 296 288 281 261 260 259 255 247 244 240 241 244 241 235 237 238 225 229 219 231 231 245 226 218 216 213 222 224 224 228 232 231 235 245 254
314 317 320 319 314 313 310 298 291 286 279 262 258 259 255 250 242 235 233 234 230 237 234 228 236 221 221 224 227 217 214 215 219 215 215 221 226 229 230 234 240 249 257
309 309 313 316 313 310 310 298 289 280 276 263 257 259 253 247 240 230 225 226 232 238 229 240 222 203 205 204 209 212 205 206 212 214 220 221 224 230 233 239 247 258 268
309 307 308 311 311 308 306 297 287 274 268 261 256 254 250 244 238 231 226 221 224 221 222 221 204 197 196 203 201 198 205 213 215 219 218 220 227 232 242 252 261 268 277
305 308 308 307 308 308 302 294 282 267 261 257 256 250 246 237 226 215 208 214 204 200 187 188 201 195 189 194 199 201 204 207 214 214 218 221 229 238 249 259 267 275 281
301 303 306 306 305 306 299 291 279 267 261 257 258 253 244 229 219 214 209 194 190 187 182 187 186 184 190 194 195 197 201 206 207 214 219 222 230 240 252 263 272 278 283
297 297 299 301 301 301 296 289 274 262 257 253 255 254 246 234 219 208 199 196 192 202 190 187 185 189 193 194 195 196 203 203 208 214 218 224 230 237 249 266 279 282 279
294 294 295 297 296 294 290 279 270 255 249 245 251 255 242 231 207 200 199 200 196 187 192 186 191 190 192 192 194 198 198 204 208 213 218 220 229 242 268 276 273 275 282
290 290 291 291 291 286 276 269 265 253 243 233 240 244 238 220 211 198 190 186 179 182 188 189 191 190 187 192 191 195 197 202 208 211 214 219 244 257 258 262 269 277 281
289 289 289 288 287 279 264 259 256 250 241 228 218 216 225 222 201 193 189 188 184 182 186 187 186 184 186 186 192 196 195 198 203 208 219 243 252 255 261 266 271 277 281
286 286 287 286 279 262 253 248 244 236 231 224 210 199 191 193 186 183 185 187 184 181 179 181 178 181 182 188 194 188 187 193 200 221 237 247 253 258 265 270 273 276 279
284 285 285 277 266 248 244 240 234 225 217 210 199 193 189 186 186 186 183 181 181 179 180 180 178 177 181 186 179 177 190 215 222 232 241 248 258 264 267 271 275 275 275
283 280 273 261 253 239 237 231 219 210 205 200 187 179 180 181 182 182 180 177 178 178 174 172 170 176 172 172 183 198 206 219 228 234 243 252 260 265 270 272 275 280 282
276 267 258 253 241 229 222 216 205 199 194 185 180 177 180 183 179 173 169 167 165 164 163 166 163 164 175 182 185 207 219 223 229 236 243 249 256 265 273 279 283 281 281
267 260 254 243 227 213 207 196 188 187 184 179 177 176 175 171 167 164 162 160 159 159 158 160 166 171 169 188 204 209 210 218 226 236 246 255 263 269 274 275 276 280 285
262 253 237 222 207 199 191 185 180 178 178 174 168 164 161 159 156 153 153 155 157 162 163 161 158 172 190 195 198 203 211 221 231 242 252 258 261 262 266 270 277 282 286
237 222 209 199 189 183 181 175 170 167 159 154 152 151 150 148 149 152 158 161 158 154 153 166 178 181 185 192 199 209 221 234 244 251 249 251 254 262 266 271 277 282 286
Wind_Speed_850mb
48 47 49 49 51 62 85 91 94 96 97 99 103 112 116 109 103 106 113 110 107 107 107 106 100 93 89 86 85 79 75 72 70 67 62 55 50 48 45 48 50 48 46
65 57 52 50 51 53 66 83 89 93 95 100 99 100 100 109 104 102 109 110 107 107 108 107 104 96 91 88 85 79 76 72 72 71 62 57 54 52 51 46 44 42 42
64 65 58 54 55 59 61 66 80 90 91 94 100 101 100 100 108 105 104 109 107 105 106 107 102 96 92 92 88 80 75 70 67 65 63 59 54 54 53 50 47 43 41
62 66 69 65 59 58 63 65 70 82 91 91 99 100 100 100 103 105 103 107 106 103 104 103 100 96 93 89 86 79 74 71 69 64 59 61 53 53 58 54 50 45 43
71 70 72 72 70 68 64 67 69 74 85 90 96 101 100 100 100 102 106 106 106 102 102 99 98 91 85 81 82 81 77 73 66 62 70 60 56 53 51 44 43 40 42
74 76 80 74 69 75 69 65 68 73 80 84 93 99 102 102 99 100 104 105 103 102 102 100 96 87 81 81 83 79 73 68 68 64 61 63 57 55 50 42 38 40 41
79 76 78 75 70 71 78 69 71 76 76 88 92 94 101 102 98 96 97 100 102 104 102 98 93 87 85 83 81 63 60 59 61 63 60 55 54 53 52 42 40 39 39
86 82 78 82 80 71 70 77 72 76 80 87 92 94 94 100 93 93 91 94 101 100 100 94 91 88 87 85 66 69 63 65 63 59 52 50 48 42 40 37 33 35 35
92 91 88 87 89 85 74 77 79 73 79 83 91 89 89 91 87 73 82 93 103 96 95 92 95 87 93 66 61 63 64 67 60 54 48 44 41 40 36 37 37 35 33
100 100 94 92 93 92 84 79 80 74 76 73 83 90 86 85 74 61 67 87 98 91 95 95 91 90 77 64 60 61 58 58 57 51 45 42 39 38 37 37 33 32 31
100 104 100 95 96 95 86 84 75 75 71 65 76 84 88 85 85 71 75 88 91 90 91 95 68 81 56 52 45 48 50 53 48 44 41 40 40 37 38 35 33 33 33
96 105 104 102 99 97 91 83 79 69 71 67 72 79 86 89 90 82 80 85 82 87 90 79 80 64 53 46 48 49 50 48 45 43 42 41 37 36 37 36 33 34 35
96 99 109 109 105 101 95 87 79 67 69 69 73 79 84 89 87 82 87 96 91 91 80 84 69 52 50 48 52 54 50 49 46 43 41 37 37 37 36 35 32 33 34
112 112 110 112 109 109 98 88 78 71 70 69 77 81 82 83 81 82 84 67 69 56 63 55 53 51 51 55 56 53 50 45 42 41 38 35 35 35 33 33 32 32 33
116 120 123 115 110 109 105 90 80 76 71 65 76 81 84 87 86 83 77 74 60 69 60 69 64 59 62 59 55 51 47 44 43 40 37 35 34 32 31 29 29 29 30
118 120 123 118 107 109 103 93 80 77 72 62 70 78 81 87 89 80 71 64 66 63 67 68 63 67 62 59 55 48 45 45 40 38 37 34 32 27 24 22 26 30 33
110 114 118 114 106 102 98 90 86 83 74 64 68 82 83 87 83 72 68 68 69 67 65 68 69 66 63 58 49 48 47 40 36 35 32 28 25 19 19 26 33 34 34
108 109 109 112 109 97 89 90 84 90 87 66 70 66 81 82 77 80 83 78 76 69 66 66 68 62 56 50 47 44 38 35 34 30 25 22 19 24 28 31 32 32 32
107 109 109 108 105 90 84 87 85 90 92 81 73 65 62 67 74 79 78 78 77 76 70 65 60 55 51 47 45 39 35 33 29 25 20 20 25 27 27 28 29 29 30
110 107 107 100 90 76 85 87 86 89 90 91 86 81 74 72 75 82 83 80 78 76 69 64 60 56 51 46 44 39 34 31 24 21 25 27 25 25 25 27 28 28 30
102 100 92 78 71 79 83 83 84 85 85 83 84 81 86 88 85 75 73 72 73 75 73 67 61 52 47 47 40 37 28 24 26 27 26 25 23 23 24 26 27 28 28
88 84 74 69 70 80 81 79 80 82 84 84 81 82 85 89 89 86 81 78 73 64 60 58 55 52 48 42 31 25 26 29 30 27 23 22 22 22 23 24 24 24 26
73 66 65 69 72 72 75 79 83 88 85 88 96 99 96 91 83 73 67 66 64 62 57 54 54 46 35 29 24 29 32 28 24 22 21 21 20 19 20 22 23 23 24
56 55 64 70 68 68 73 78 82 88 94 97 98 93 83 75 76 73 69 66 60 59 55 43 36 32 26 27 32 30 24 21 20 19 18 18 18 19 20 20 21 21 21
45 55 63 64 65 68 74 79 81 86 88 86 82 77 76 77 76 72 64 62 52 42 38 33 28 27 31 29 25 22 21 20 19 18 18 19 18 18 18 18 19 19 20
41 48 53 56 59 64 71 75 75 75 80 80 80 80 78 72 68 65 55 47 42 37 31 31 33 30 26 24 22 20 19 18 17 17 18 17 15 14 15 15 16 17 18
Wind_Direction_850mb
305 308 305 306 288 267 255 253 254 249 245 243 244 251 256 254 248 242 242 241 238 241 242 242 242 242 242 240 240 242 245 249 249 253 260 265 266 266 270 269 261 264 263
308 305 301 296 297 285 270 257 252 252 248 245 243 245 245 253 253 244 240 240 238 239 240 240 240 239 239 239 239 240 245 250 250 255 258 260 263 266 270 263 255 256 261
314 312 305 298 296 297 287 277 258 251 250 246 244 242 241 243 251 249 241 240 240 240 241 240 239 237 237 236 239 240 246 247 246 252 260 256 258 257 268 262 255 249 256
325 309 308 306 300 298 297 280 270 257 252 246 242 243 241 241 242 248 244 239 239 239 240 239 239 238 238 237 240 241 243 243 247 252 257 242 253 259 269 259 250 254 249
332 328 313 307 306 295 295 290 273 263 257 250 246 243 241 242 240 242 248 241 239 239 238 237 238 238 237 239 241 243 238 246 247 243 252 249 254 263 254 245 244 242 244
328 331 328 311 306 300 290 288 278 265 257 252 248 246 242 240 238 240 249 247 241 239 237 236 236 235 234 238 241 238 244 246 245 251 245 256 257 254 241 245 234 240 251
329 328 331 320 305 307 298 290 280 271 260 251 249 248 247 243 241 238 246 250 244 241 239 236 233 230 234 236 231 238 245 235 241 243 248 250 250 246 237 232 238 247 246
332 327 327 328 315 305 306 298 286 275 264 258 253 251 250 248 245 241 244 248 245 242 240 237 231 232 234 224 233 246 241 242 240 247 239 240 242 233 234 242 242 236 240
329 330 325 322 322 313 302 303 297 283 269 259 258 255 252 250 245 243 255 247 242 239 238 234 232 232 231 229 237 243 237 244 234 226 228 224 227 234 231 230 230 235 245
323 325 324 320 317 318 306 298 296 288 281 261 260 259 255 247 244 240 241 244 241 235 237 238 225 229 219 231 231 245 226 218 216 213 222 224 224 228 232 231 235 245 254
314 317 320 319 314 313 310 298 291 286 279 262 258 259 255 250 242 235 233 234 230 237 234 228 236 221 221 224 227 217 214 215 219 215 215 221 226 229 230 234 240 249 257
309 309 313 316 313 310 310 298 289 280 276 263 257 259 253 247 240 230 225 226 232 238 229 240 222 203 205 204 209 212 205 206 212 214 220 221 224 230 233 239 247 258 268
309 307 308 311 311 308 306 297 287 274 268 261 256 254 250 244 238 231 226 221 224 221 222 221 204 197 196 203 201 198 205 213 215 219 218 220 227 232 242 252 261 268 277
305 308 308 307 308 308 302 294 282 267 261 257 256 250 246 237 226 215 208 214 204 200 187 188 201 195 189 194 199 201 204 207 214 214 218 221 229 238 249 259 267 275 281
301 303 306 306 305 306 299 291 279 267 261 257 258 253 244 229 219 214 209 194 190 187 182 187 186 184 190 194 195 197 201 206 207 214 219 222 230 240 252 263 272 278 283
297 297 299 301 301 301 296 289 274 262 257 253 255 254 246 234 219 208 199 196 192 202 190 187 185 189 193 194 195 196 203 203 208 214 218 224 230 237 249 266 279 282 279
294 294 295 297 296 294 290 279 270 255 249 245 251 255 242 231 207 200 199 200 196 187 192 186 191 190 192 192 194 198 198 204 208 213 218 220 229 242 268 276 273 275 282
290 290 291 291 291 286 276 269 265 253 243 233 240 244 238 220 211 198 190 186 179 182 188 189 191 190 187 192 191 195 197 202 208 211 214 219 244 257 258 262 269 277 281
289 289 289 288 287 279 264 259 256 250 241 228 218 216 225 222 201 193 189 188 184 182 186 187 186 184 186 186 192 196 195 198 203 208 219 243 252 255 261 266 271 277 281
286 286 287 286 279 262 253 248 244 236 231 224 210 199 191 193 186 183 185 187 184 181 179 181 178 181 182 188 194 188 187 193 200 221 237 247 253 258 265 270 273 276 279
284 285 285 277 266 248 244 240 234 225 217 210 199 193 189 186 186 186 183 181 181 179 180 180 178 177 181 186 179 177 190 215 222 232 241 248 258 264 267 271 275 275 275
283 280 273 261 253 239 237 231 219 210 205 200 187 179 180 181 182 182 180 177 178 178 174 172 170 176 172 172 183 198 206 219 228 234 243 252 260 265 270 272 275 280 282
276 267 258 253 241 229 222 216 205 199 194 185 180 177 180 183 179 173 169 167 165 164 163 166 163 164 175 182 185 207 219 223 229 236 243 249 256 265 273 279 283 281 281
267 260 254 243 227 213 207 196 188 187 184 179 177 176 175 171 167 164 162 160 159 159 158 160 166 171 169 188 204 209 210 218 226 236 246 255 263 269 274 275 276 280 285
262 253 237 222 207 199 191 185 180 178 178 174 168 164 161 159 156 153 153 155 157 162 163 161 158 172 190 195 198 203 211 221 231 242 252 258 261 262 266 270 277 282 286
237 222 209 199 189 183 181 175 170 167 159 154 152 151 150 148 149 152 158 161 158 154 153 166 178 181 185 192 199 209 221 234 244 251 249 251 254 262 266 271 277 282 286